{"data":{"norad_id":48453,"epoch":"2026-05-24T09:42:29.872224Z","epoch_age_seconds":137244,"freshness":"FRESH","line1":"1 48453U 21040AB  26144.40451241  .00001963  00000+0  74968-4 0  9995","line2":"2 48453  53.1593 185.9508 0001182  78.2455 281.8679 15.31718798278289","mean_motion":15.31718798,"eccentricity":0.0001182,"inclination_deg":53.1593,"raan_deg":185.9508,"arg_perigee_deg":78.2455,"mean_anomaly_deg":281.8679,"bstar":7.4968e-5,"rev_number":27828,"period_min":94.012034185403,"perigee_km":469.87442930144,"apogee_km":471.49349057636,"semimajor_km":6848.8209599389,"source":"CELESTRAK","updated_at":"2026-05-25T13:38:16.717937Z"}}